Location: Beang
(6.6177°N, 10.9863°W)
Time: 21:26:26
(UTC+00:00)

ALOS - Pass Details

Date: 07 June 2020
Orbit: 683 x 686 km, 97.8° (Epoch: 10 July)

Event Time Altitude Azimuth Distance (km) Brightness Sun altitude
Rises 06:01:38 0° 350° (N) 3,031 5.8 -6.9°
Reaches altitude 10° 06:04:14 10° 336° (NNW) 2,117 4.8 -6.3°
Maximum altitude 06:07:55 24° 283° (WNW) 1,408 3.5 -5.4°
Drops below altitude 10° 06:11:36 10° 230° (SW) 2,121 4.2 -4.6°
Enters shadow 06:14:06 - 217° (SW) 2,998 5.0 -4.0°
